Погода в Кинель-Черкассах

Россия / Самарская область     53°27′50″N   51°31′09″E
темп.,
°C
ветер,
м/с
пор.,
м/с
влажн.,
%
обл.,
%
осадки,
мм/ч
давл.,
гПа
погр.,
м
12 апреля, пн
пн1201:00+11юв2281100 0.0 103124
04:00+9юв3385100 0.0 103237
07:00+8в229338 0.0 103337
10:00+13вюв33746 0.0 1034292
13:00+17в34615 0.0 1034660
16:00+18в446048 0.0 1034728
19:00+14всв477620 0.0 1035167
22:00+10всв498888 0.0 1036189
13 апреля, вт
вт1301:00+8всв379370 0.0 1036144
04:00+7в359270 0.0 103688
07:00+7в369267 0.0 1037118
10:00+13вюв457487 0.0 1036463
13:00+17юв445850 0.0 1035921
16:00+18юв44465 0.0 10341074
19:00+15юв346115 0.0 103353
22:00+11юв35698 0.0 103463
14 апреля, ср
ср1401:00+9юв358760 0.0 103395
04:00+7вюв229265 0.0 103333
07:00+7вюв369388 0.0 1033167
10:00+12вюв466885 0.0 1031527
13:00+16вюв565447 0.0 1029919
16:00+18вюв56505 0.0 10281193
19:00+14вюв35610 0.0 102778
22:00+11вюв35670 0.0 102675
15 апреля, чт
чт1501:00+9юв34660 0.0 102648
04:00+7вюв33710 0.0 102530
07:00+7в24760 0.0 1025104
10:00+14юв35580 0.0 1024460
13:00+18ю45450 0.0 10221047
16:00+19ю34405 0.0 10211542
19:00+16ююв22505 0.0 102011
22:00+13ююв115520 0.0 102010
16 апреля, пт
пт1601:00+11юв116091 0.0 101910
04:00+10юв116395 0.0 101810
07:00+10юв116499 0.0 101810
10:00+15ююз224945 0.0 1017323
13:00+18зюз223898 0.0 10161213
16:00+19з233691 0.0 10151724
19:00+16юз345285 0.0 101471
22:00+15з355977 0.0 1013101